Flag for Switzerland Weather past 2 weeks in Kriens, Lucerne, Switzerland

Now
44 °F

Quite cool.


Feels Like: 44 °F
Forecast: 32 / 62 °F
Wind: 1 mph from Northwest

Location: Giswil

Current Time: Apr 28, 2015 at 6:24:49 PM

Latest Report: Apr 28, 2015 at 5:00 PM


Visibility: N/A

Pressure: 30.19 "Hg

Humidity: 85%

Dew point: 40 °F

Location of KriensLocation

Historic Weather in Kriens — Graph

°F

Kriens temperature yesterday

Maximum temperature yesterday: 65 °F (at 6:00 PM)
Minimum temperature yesterday: 43 °F (at 4:00 AM)
Average temperature yesterday: 55 °F

Past Weeks' High & Low Weather Summary

 TemperatureHumidityPressure
High73 °F (Apr 15, 5:00 PM)100% (Apr 18, 2:00 AM)30.53 "Hg (Apr 18, 2:00 AM)
Low32 °F (Apr 21, 5:00 AM)24% (Apr 22, 6:00 PM)29.44 "Hg (Apr 27, 5:00 PM)
Average51 °F75%30.06 "Hg
* Reported Apr 13 5:00 PM — Apr 28 5:00 PM, Kriens, Weather by CustomWeather, © 2015

Note: Actual official high and low records may vary slightly from our data, if they occured in-between our weather recording intervals... More about our weather records

Advertising

Kriens weather history for previous 24 hours

 ConditionsComfort  
Time TempWeatherWind HumidityBarometerVisibility
5:00 PM
Tue, Apr 28
44 °FQuite cool.1 mph85%30.19 "HgN/A
4:00 PM45 °FQuite cool.2 mph80%30.17 "HgN/A
3:00 PM45 °FCool.7 mph80%30.14 "HgN/A
2:00 PM46 °FCool.8 mph87%30.11 "HgN/A
1:00 PM47 °FCool.1 mph85%30.08 "HgN/A
12:00 PM49 °FCool.6 mph85%30.04 "HgN/A
11:00 AM50 °FCool.3 mph82%30.00 "HgN/A
10:00 AM49 °FCool.1 mph87%29.98 "HgN/A
9:00 AM48 °FCool.No wind90%29.95 "HgN/A
8:00 AM47 °FCool.No wind94%29.93 "HgN/A
7:00 AM47 °FCool.1 mph95%29.89 "HgN/A
6:00 AM47 °FCool.1 mph97%29.85 "HgN/A
5:00 AM49 °FCool.5 mph81%29.80 "HgN/A
4:00 AM51 °FCool.7 mph85%29.74 "HgN/A
3:00 AM53 °FCool.1 mph99%29.69 "HgN/A
2:00 AM54 °FCool.1 mph96%29.65 "HgN/A
1:00 AM55 °FCool.5 mph92%29.62 "HgN/A
12:00 AM58 °FCool.8 mph82%29.59 "HgN/A
11:00 PM
Mon, Apr 27
59 °FCool.6 mph70%29.55 "HgN/A
10:00 PM57 °FCool.5 mph82%29.55 "HgN/A
9:00 PM60 °FCool.6 mph73%29.50 "HgN/A
8:00 PM60 °FCool.2 mph77%29.47 "HgN/A
7:00 PM64 °FMild.1 mph64%29.44 "HgN/A
6:00 PM65 °FMild.1 mph61%29.44 "HgN/A
Weather by CustomWeather, © 2015

See weather overviewHow to use our weather pages